www.pogodaiklimat.ru

Погода и климат >> Архив погоды >> Австралия >> Западная Австралия >> Кунунарра


ПОГОДА в Кунунарре

  • Прогноз погоды в Кунунарре
  • Монитор погоды в Кунунарре

АРХИВ ПОГОДЫ в Кунунарре

Время (UTC), дата Ветер
(напр.,м/с)
 
Видим.   Явления Облачность Т
(С)
Тd
(С)
f
(%)
Тe
(С)
Тes
(С)
Комфортность P
(гПа)
Po
(гПа)
Тmin
(С)
Tmax
(С)
R
(мм)
R24
(мм)
S
(см)
07 16.07 Ю 5 н/о н/о +27.7 -2.2 14 +25 +25 комфорт 1014.8 1009.6
09 16.07 Ю 4 н/о н/о +25.0 -1.7 17 +23 +23 комфорт 1015.3 1010.1
10 16.07 Ю 3 н/о н/о +23.5 -1.4 19 +22 +22 комфорт 1016.0 1010.8
12 16.07 Ю 2 н/о н/о +21.4 +0.6 25 +21 +21 комфорт 1017.1 1011.9
13 16.07 Ю 2 н/о н/о +18.7 +1.7 32 +20 +20 1017.5 1012.3 +28.2
15 16.07 ЮВ 6 н/о н/о +22.8 -2.0 19 +22 +22 комфорт 1017.3 1012.1
16 16.07 ЮВ 4 н/о 1/0
[]
+21.9 -2.0 20 +21 +21 комфорт 1017.1 1011.9
18 16.07 Ю 3 н/о н/о +18.9 -0.5 27 +19 +19 1016.4 1011.2
19 16.07 Ю 3 н/о н/о +18.1 +0.3 30 +18 +18 1016.4 1011.2
21 16.07 ЮВ 3 н/о н/о +17.3 +0.5 32 +17 +17 1016.8 1011.6
22 16.07 ЮВ 1 н/о н/о +13.7 +3.2 49 +14 +14 1017.2 1012.0
00 17.07 ЮВ 4 н/о н/о +21.9 -2.0 20 +21 +21 комфорт 1018.3 1013.1
01 17.07 В 8 н/о н/о +23.5 -2.9 17 +22 +22 комфорт 1018.2 1013.0 +13.8
03 17.07 ЮВ 5 н/о н/о +25.7 -2.8 15 +24 +24 комфорт 1016.7 1011.5
04 17.07 ЮВ 4 н/о н/о +27.2 -1.7 15 +25 +25 комфорт 1015.5 1010.3
06 17.07 ЮВ 4 н/о н/о +28.6 -2.5 13 +26 +26 жарко 1013.4 1008.2
07 17.07 ЮВ 4 н/о н/о +29.1 -2.1 13 +26 +26 жарко 1012.8 1007.6
09 17.07 Ю 2 н/о н/о +25.9 +1.9 21 +24 +24 комфорт 1013.7 1008.5
10 17.07 ЮВ 3 н/о н/о +23.9 +2.1 24 +23 +23 комфорт 1014.3 1009.1
12 17.07 штиль 0 н/о н/о +16.6 +5.3 47 +17 +17 1015.6 1010.4
13 17.07 штиль 0 н/о н/о +15.2 +4.9 50 +15 +15 1015.7 1010.5 +29.5
15 17.07 ЮВ 2 н/о н/о +15.2 +4.6 49 +15 +15 1015.6 1010.4
16 17.07 ЮВ 1 н/о н/о +14.7 +5.5 54 +15 +15 1015.5 1010.3
18 17.07 Ю 3 н/о н/о +19.4 +3.2 34 +20 +20 1015.1 1009.9
19 17.07 Ю 3 н/о н/о +19.2 +2.6 33 +20 +20 1015.1 1009.9
21 17.07 штиль 0 н/о н/о +14.0 +5.6 57 +14 +14 1015.9 1010.7
22 17.07 штиль 0 н/о н/о +12.9 +5.8 62 +13 +13 1016.5 1011.3
00 18.07 ЮВ 5 н/о н/о +23.3 +1.0 23 +22 +22 комфорт 1017.7 1012.5
01 18.07 ЮВ 8 н/о н/о +24.8 -0.4 19 +23 +23 комфорт 1017.6 1012.4 +12.3
03 18.07 В 4 н/о н/о +28.7 -0.5 15 +26 +26 жарко 1015.6 1010.4
04 18.07 ЮВ 5 н/о н/о +28.9 -1.2 14 +26 +26 жарко 1014.5 1009.3
06 18.07 Ю 3 н/о н/о +30.4 -3.3 11 +27 +27 жарко 1012.6 1007.4
07 18.07 ЮВ 3 н/о н/о +30.8 -4.3 10 +27 +27 жарко 1012.1 1006.9
09 18.07 ЮВ 2 н/о н/о +27.2 +4.3 23 +26 +26 жарко 1012.6 1007.4
10 18.07 штиль 0 н/о н/о +21.0 +7.3 41 +22 +22 комфорт 1013.2 1008.0
12 18.07 штиль 0 н/о н/о +17.6 +6.5 48 +18 +18 1014.5 1009.3
13 18.07 штиль 0 н/о н/о +15.9 +9.1 64 +16 +16 1014.9 1009.7 +31.3
15 18.07 ЮВ 2 н/о н/о +14.6 +7.6 63 +15 +15 1014.7 1009.5
16 18.07 штиль 0 н/о н/о +13.9 +6.5 61 +14 +14 1014.4 1009.2
18 18.07 штиль 0 н/о н/о +13.5 +7.7 68 +13 +13 1014.2 1009.0
19 18.07 штиль 0 н/о н/о +12.0 +6.3 68 +12 +12 1014.3 1009.1
21 18.07 штиль 0 н/о н/о +11.4 +7.5 77 +11 +11 1014.5 1009.3
22 18.07 штиль 0 н/о н/о +10.3 +6.8 79 +10 +10 1015.1 1009.9
00 19.07 штиль 0 н/о н/о +23.1 +2.6 26 +23 +23 комфорт 1016.3 1011.1
01 19.07 Ю 2 н/о н/о +26.1 +0.7 19 +24 +24 комфорт 1016.3 1011.1 +10.2
03 19.07 В 4 н/о н/о +29.9 -1.5 13 +27 +27 жарко 1014.7 1009.5
04 19.07 СВ 5 н/о н/о +31.3 -1.5 12 +28 +28 жарко 1013.6 1008.4
06 19.07 ЮВ 4 н/о н/о +32.2 -2.0 11 +29 +29 жарко 1012.1 1006.9
07 19.07 ЮВ 2 н/о н/о +32.8 -0.3 12 +29 +29 жарко 1011.8 1006.6
09 19.07 Ю 2 н/о н/о +29.1 +6.5 24 +28 +28 жарко 1012.3 1007.1
10 19.07 ЮВ 1 н/о н/о +21.2 +9.4 47 +23 +23 комфорт 1013.0 1007.8
12 19.07 штиль 0 н/о н/о +18.7 +9.5 55 +19 +19 1014.4 1009.2
13 19.07 ЮВ 1 н/о н/о +16.3 +9.7 65 +17 +17 1014.7 1009.5 +33.3
15 19.07 штиль 0 н/о н/о +15.6 +9.1 65 +15 +15 1014.8 1009.6
16 19.07 штиль 0 н/о н/о +14.2 +7.5 64 +14 +14 1014.8 1009.6
18 19.07 штиль 0 н/о н/о +12.9 +9.2 78 +12 +12 1014.5 1009.3
19 19.07 штиль 0 н/о н/о +12.5 +8.6 77 +12 +12 1014.4 1009.2
21 19.07 СВ 1 н/о н/о +11.9 +8.2 78 +13 +13 1014.3 1009.1
22 19.07 Ю 2 н/о н/о +13.4 +8.3 71 +13 +13 1014.7 1009.5
00 20.07 ЮЗ 2 н/о н/о +24.6 +2.1 23 +24 +24 комфорт 1016.3 1011.1
01 20.07 Ю 3 н/о н/о +26.8 +1.3 19 +25 +25 комфорт 1016.2 1011.0 +10.8
03 20.07 В 5 н/о н/о +31.0 +4.7 19 +29 +29 жарко 1014.5 1009.3
04 20.07 С 3 н/о н/о +32.0 +6.2 20 +30 +30 жарко 1013.4 1008.2
06 20.07 СЗ 3 н/о н/о +33.3 +7.3 20 +32 +32 жарко 1011.5 1006.4
07 20.07 С 2 н/о н/о +33.7 +6.1 18 +32 +32 жарко 1011.1 1006.0
09 20.07 С 2 н/о н/о +29.5 +10.1 30 +30 +30 жарко 1011.3 1006.2
10 20.07 штиль 0 н/о н/о +22.7 +14.5 60 +26 +26 жарко 1011.9 1006.7
12 20.07 В 2 н/о н/о +19.3 +12.1 63 +21 +21 комфорт 1013.2 1008.0
13 20.07 ЮВ 1 н/о н/о +18.2 +12.0 67 +20 +20 1013.4 1008.2 +34.6
15 20.07 штиль 0 н/о н/о +16.5 +11.2 71 +16 +16 1013.5 1008.3
16 20.07 ЮЗ 1 н/о н/о +16.2 +12.6 79 +18 +18 1013.3 1008.1
18 20.07 штиль 0 н/о н/о +15.0 +12.3 84 +15 +15 1012.6 1007.4
19 20.07 ЮВ 2 н/о н/о +15.3 +13.7 90 +15 +15 1012.6 1007.4
21 20.07 штиль 0 н/о н/о +12.7 +10.2 85 +12 +12 1013.5 1008.3
22 20.07 ЮВ 2 н/о н/о +13.0 +10.9 87 +12 +12 1013.9 1008.7
00 21.07 Ю 1 н/о н/о +20.7 +13.2 62 +25 +25 комфорт 1015.1 1009.9
01 21.07 С 3 н/о н/о +23.7 +14.4 56 +26 +26 жарко 1015.1 1009.9 +12.0
03 21.07 СВ 3 н/о н/о +28.5 +14.7 43 +31 +31 душно 1013.7 1008.5
04 21.07 С 3 н/о н/о +30.0 +14.9 40 +32 +32 жарко 1012.4 1007.2
06 21.07 С 3 н/о н/о +32.2 +11.9 29 +32 +32 жарко 1010.1 1005.0
07 21.07 С 3 н/о н/о +32.7 +11.3 27 +33 +33 жарко 1009.8 1004.7
09 21.07 С 1 н/о н/о +28.8 +15.0 43 +31 +31 жарко 1010.1 1005.0
10 21.07 штиль 0 н/о н/о +23.1 +15.7 63 +27 +27 душно 1010.9 1005.8
12 21.07 С 1 н/о н/о +21.2 +12.9 59 +23 +23 комфорт 1012.2 1007.0
13 21.07 СЗ 1 н/о н/о +19.4 +12.2 63 +22 +22 комфорт 1012.5 1007.3 +33.6
15 21.07 Ю 1 н/о н/о +19.4 +14.2 72 +23 +23 комфорт 1012.0 1006.8
16 21.07 СВ 1 н/о н/о +16.9 +13.2 79 +18 +18 1012.0 1006.8
18 21.07 С 2 н/о н/о +15.2 +13.4 89 +15 +15 1012.0 1006.8
19 21.07 СВ 1 н/о н/о +15.5 +14.2 92 +17 +17 1012.0 1006.8
21 21.07 штиль 0 н/о н/о +13.7 +11.0 84 +13 +13 1012.7 1007.5
22 21.07 ЮВ 2 н/о н/о +14.4 +13.4 94 +14 +14 1013.6 1008.4
00 22.07 В 1 н/о н/о +22.1 +15.2 65 +26 +26 душно 1014.8 1009.6
01 22.07 СВ 3 н/о н/о +25.0 +16.2 58 +28 +28 жарко 1014.9 1009.7 +13.0
03 22.07 С 3 н/о н/о +29.7 +14.7 40 +32 +32 душно 1013.0 1007.8
04 22.07 С 3 н/о н/о +31.2 +13.9 35 +33 +33 жарко 1011.9 1006.7
06 22.07 СВ 3 н/о н/о +33.2 +8.6 22 +32 +32 жарко 1010.2 1005.1
07 22.07 С 2 н/о н/о +33.4 +6.6 19 +31 +31 жарко 1010.0 1004.9
09 22.07 С 3 н/о н/о +27.9 +11.9 37 +29 +29 жарко 1010.6 1005.5
10 22.07 С 3 н/о н/о +24.7 +11.6 44 +26 +26 жарко 1011.1 1006.0
12 22.07 С 3 н/о н/о +22.3 +12.3 53 +25 +25 комфорт 1012.9 1007.7
13 22.07 Ю 1 н/о н/о +20.5 +11.4 56 +23 +23 комфорт 1013.2 1008.0 +33.9
15 22.07 Ю 1 н/о н/о +17.8 +12.0 69 +19 +19 1013.2 1008.0
16 22.07 В 2 н/о н/о +16.7 +13.2 80 +17 +17 1013.4 1008.2
18 22.07 СВ 2 н/о н/о +15.7 +12.5 81 +16 +16 1013.0 1007.8
19 22.07 Ю 2 н/о н/о +17.8 +12.9 73 +18 +18 1013.7 1008.5
21 22.07 штиль 0 н/о н/о +14.2 +12.1 87 +14 +14 1014.4 1009.2
00 23.07 ЮЗ 2 н/о н/о +22.9 +14.5 59 +27 +27 душно 1016.4 1011.2
01 23.07 ЮВ 2 н/о н/о +26.0 +10.2 37 +27 +27 жарко 1016.5 1011.3 +13.6
03 23.07 С 3 н/о н/о +31.2 +8.2 24 +30 +30 жарко 1015.1 1009.9
04 23.07 С 4 н/о н/о +31.7 +4.5 18 +29 +29 жарко 1014.0 1008.8
06 23.07 СВ 4 н/о н/о +32.8 +0.8 13 +30 +30 жарко 1012.1 1006.9

 

Местоположение метеостанции Кунунарра (Западная Австралия, Австралия): широта -15.78 долгота 128.71 высота над уровнем моря 44 м.

В архиве по умолчанию представлена погода в Кунунарре за последнюю неделю. Архивные данные за месяц целиком и за предыдущие месяцы, начиная с января 2011 года, Вы можете получить, выбрав интересующий диапазон дат из раскрывающегося списка и нажав кнопку "Ввод!".


*Определитесь, кто Вы:
робот инопланетянин человек

Внимание! Время в таблицах - всемирное. Для получения местного времени необходимо прибавить поправку, которая равна 8 ч.

Смотрите также архив погоды в соседних городах и на ближайших метеорологических станциях:

Погода в Уиндеме (Западная Австралия, Австралия) (68 км)
Погода в Аэропорту Аргайл (Западная Австралия, Австралия) (99 км)
Погода в Порт Китс (Северная территория, Австралия) (192 км)
Погода в Манбуллу Ксиро (Северная территория, Австралия) (242 км)
Погода в Виктория-Ривер (Северная территория, Австралия) (256 км)
Погода в Калумбуру (Западная Австралия, Австралия) (276 км)
Погода в Холс Крик (Западная Австралия, Австралия) (294 км)
Погода в Трускотте (Западная Австралия, Австралия) (314 км)
Погода на Маяке Кейп-Дон (Северная территория, Австралия) (343 км)
Погода на Базе ВВС Delamere Weapons Range (Северная территория, Австралия) (344 км)

Пояснения к столбцам:

Ветер - указаны скорость ветра в м/с - средняя за 10 мин, порывы в срок и между сроками (в фигурных скобках) и направление, откуда дует ветер: С - северный, СВ - северо-восточный, В - восточный, ЮВ - юго-восточный, Ю - южный, ЮЗ - юго-западный, З - западный, СЗ - северо-западный.
Видимость - горизонтальная дальность видимости в метрах или километрах. При видимости от 1 до 10 км при отсутствии осадков обычно наблюдается дымка, при ухудшении видимости до 1 км и менее - туман. В сухую погоду видимость может ухудшаться дымом, пылью или мглою.
Явления - указаны атмосферные явления, наблюдавшиеся в срок или в последний час перед сроком; фигурными скобками обозначены явления, наблюдавшиеся между сроками (за 1-3 часа до срока); квадратными скобками обозначены град или гололедные отложения с указанием их диаметра в мм.
Облачность - указаны через наклонную черту общая и нижняя облачность в баллах и высота нижней границы облаков в метрах; квадратными скобками обозначены формы облаков: Ci - перистые, Cs - перисто-слоистые, Cc - перисто-кучевые, Ac - высококучевые, As - высокослоистые, Sc - слоисто-кучевые, Ns - слоисто-дождевые, Cu - кучевые, Cb - кучево-дождевые. Подробнее классификацию облаков см. в Атласе облаков (PDF).
T - Температура воздуха - температура, измеренная на высоте 2 м над землей.
Td - Температура точки росы - температура, при понижении до которой содержащийся в воздухе водяной пар достигнет насыщения.
f - Относительная влажность воздуха - влажноcть воздуха, измеренная на высоте 2 м над землей.
Te - Эффективная температура - температура, которую ощущает одетый по сезону человек в тени. Характеристика душности погоды. При расчете учитывается влияние влажности воздуха и скорости ветра на теплоощущения человека.
Tes - Эффективная температура на солнце - температура, которую ощущает человек, с поправкой на солнечный нагрев. Характеристика знойности погоды. Зависит от высоты солнца над горизонтом, облачности и скорости ветра. Ночью, в пасмурную погоду, а также при ветре 12 м/с и более поправка равна нулю.
P - Атмосферное давление - приведенное к уровню моря атмосферное давление.
Po - Атмосферное давление - измеренное на уровне метеостанции атмосферное давление.
Tmin - Минимальная температура - минимум температуры воздуха на высоте 2 м над землей.
Tmax - Максимальная температура - максимум температуры воздуха на высоте 2 м над землей.
R - Количество осадков - Количество выпавших осадков за период времени, мм. При наведении курсора мыши на число - период времени, за который выпало указанное количество осадков.
R24 - Количество осадков - Количество выпавших осадков за 24 часа, мм.
S - Снежный покров - Высота снежного покрова, см. При наведении курсора мыши на число - состояние снежного покрова и степень покрытия местности в баллах.